Regional Weather Roundup
Issued by NWS

Home | Current Version | Previous Version | Graphics & Text | Print | Product List | Glossary On
Versions: 1 2 3 4 5 6 7 8 9 10 11 12 13 14 15 16 17 18 19 20 21 22 23 24 25 26 27 28 29 30 31 32 33 34 35 36 37 38 39 40 41 42 43 44 45 46 47 48 49 50
000
ASUS45 KBOU 010207
RWRCO

WEATHER ROUNDUP FOR COLORADO
NATIONAL WEATHER SERVICE DENVER/BOULDER CO
700 PM MST SAT JAN 31 2015

NOTE: "FAIR" INDICATES FEW OR NO CLOUDS BELOW 12000 FEET WITH NO
SIGNIFICANT WEATHER AND/OR OBSTRUCTIONS TO VISIBILITY.

COZ001>005-013-030-031-010300-
...NORTHWEST COLORADO...

CITY           SKY/WX    TMP DP  RH WIND       PRES   REMARKS
CRAIG          PTCLDY    27  23  85 CALM      29.94R
HAYDEN         CLOUDY    30  25  80 S5        29.92F WCI  25
MEEKER         CLOUDY    34  28  79 CALM      29.98R
MOUNT WERNER   NOT AVBL
STEAMBOAT SPGS CLOUDY    30  27  87 E5        29.92S WCI  26
WALDEN         MOCLDY    28  21  74 SW6       29.88S WCI  22
$$

COZ006>008-011-010300-
...WEST CENTRAL VALLEYS...

CITY           SKY/WX    TMP DP  RH WIND       PRES   REMARKS
GRAND JUNCTION PTCLDY    38  36  92 N7        29.97R
MONTROSE       CLOUDY    38  35  89 SE3       29.99R
EAGLE          CLOUDY    36  32  87 SW3       29.96R
RIFLE          MOCLDY    38  28  67 W6        29.97R
DELTA          CLOUDY    42  39  90 NE6       29.98R
NUCLA          CLOUDY    37  34  87 NW5       30.01R
$$

COZ017>023-064>068-010300-
...SOUTHWEST COLORADO...

CITY           SKY/WX    TMP DP  RH WIND       PRES   REMARKS
DURANGO        CLOUDY    34  32  92 S5        29.90R WCI  30
CORTEZ         CLEAR     35  32  88 NW8       29.94R WCI  29
PAGOSA SPRINGS LGT SNOW  33  33 100 CALM      29.92R VSB 1
TELLURIDE      LGT SNOW  29  29 100 W13       29.97R VSB 3/4 WCI  18
WOLF CREEK PAS PTCLDY    18  18 100 NW7       29.97R WCI   8
$$

COZ009-010-012-014-032>034-037-058>063-010300-
...CENTRAL COLORADO...

CITY           SKY/WX    TMP DP  RH WIND       PRES   REMARKS
ASPEN          CLOUDY    32  27  81 N9        29.94R WCI  24
BUENA VISTA    PTCLDY    28  26  91 W5        29.85R WCI  23
COPPER MTN     SNOW      23  18  80 MISG      29.91R VSB<1/4
BERTHOUD PASS  HAZE      12   9  85 MISG      29.84S VSB 3/4
COTTONWOOD PAS PTCLDY    32  21  64 W17G29    29.86R WCI  21
GUNNISON       PTCLDY    32  25  74 W10       29.93R WCI  24
KREMMLING      CLOUDY    32  23  69 W5        29.94R WCI  27
LEADVILLE      LGT SNOW  24  21  88 NW9       29.88R FOG     WCI  14
MONARCH PASS   CLOUDY    21  19  93 MISG      30.01R
SALIDA         PTCLDY    33  28  83 W6        29.92R WCI  27
SUNLIGHT       FOG      N/A N/A N/A W5          N/A  VSB<1/4
WILKERSON PASS MOCLDY    19  18  93 NW9G20    29.90R WCI   9
$$

COZ069>075-010300-
...SAN LUIS VALLEY/SANGRE DE CRISTO MOUNTAINS...

CITY           SKY/WX    TMP DP  RH WIND       PRES   REMARKS
ALAMOSA        CLOUDY    32  30  92 W3        29.86R
LA VETA PASS   LGT SNOW  27  23  86 MISG      29.84R
SAGUACHE       CLOUDY    30  30 100 SE3       29.88R
$$

COZ035-036-038>040-010300-
...NORTHERN COLORADO FRONT RANGE...

CITY           SKY/WX    TMP DP  RH WIND       PRES   REMARKS
DENVER INTL AP MOCLDY    32  29  88 CALM      29.83R
DMNS CITY PARK   N/A     34  27  77 E2        29.83S
AURORA         PTCLDY    31  31  99 E5        29.84R WCI  26
FRONT RANGE AP NOT AVBL
ERIE MUNI ARPT PTCLDY    31  27  86 CALM      29.83S
BOULDER MUN AP MOCLDY    34  28  80 CALM      29.82S
CENTENNIAL     PTCLDY    33  27  78 CALM      29.82R
BROOMFIELD     MOCLDY    36  27  69 CALM      29.83R
FORT COLLINS   PTCLDY    34  27  75 E8        29.85S WCI  27
LONGMONT       PTCLDY    32  26  78 CALM      29.85S
$$

COZ041-046-047-076>085-087-088-010300-
...PIKES PEAK/PALMER DIVIDE AND SOUTHERN FOOTHILLS...

CITY           SKY/WX    TMP DP  RH WIND       PRES   REMARKS
COLO. SPRINGS  CLOUDY    34  31  88 NW6       29.83R WCI  29
A. F. ACADEMY  MOCLDY    31  29  92 N3        29.82R
ELLICOTT       CLOUDY   N/A N/A N/A N3        29.80S
FALCON         CLOUDY    30  28  92 SW6       29.82R WCI  24
FORT CARSON    CLOUDY    35  35  99 NW6       29.81S WCI  30
LIMON          CLOUDY    32  31  96 NW9       29.82R WCI  24
MONUMENT HILL  CLOUDY    28  28 100 W7        29.81R FOG     WCI  21
TRINIDAD       CLOUDY    36  32  85 NE8       29.81R
$$

COZ042>045-048>051-090-091-010300-
...NORTHEAST COLORADO...

CITY           SKY/WX    TMP DP  RH WIND       PRES   REMARKS
GREELEY ARPT   CLOUDY    37  28  70 CALM      29.84R
AKRON          LGT SNOW  31  31 100 N15       29.83R FOG     WCI  20
BURLINGTON     LGT SNOW  33  31  92 N9        29.80R FOG     WCI  25
WRAY           LGT SNOW N/A N/A N/A N8        29.84R
STERLING       FLURRIES  32  32 100 N9        29.84S WCI  24
HOLYOKE        NOT AVBL
FORT MORGAN    CLOUDY    33  32  96 N5        29.85R WCI  28
$$

COZ086-089-092>099-010300-
...SOUTHEAST COLORADO...

CITY           SKY/WX    TMP DP  RH WIND       PRES   REMARKS
PUEBLO         CLOUDY    37  35  92 NE7       29.83R
LA JUNTA       LGT RAIN  38  35  89 N5        29.82R
LAMAR          CLOUDY    40  38  93 NW5       29.80R
SPRINGFIELD      N/A     35  34  96 N7        29.80R WCI  29
$$



USA.gov is the U.S. government's official web portal to all federal, state and local government web resources and services.